Miscellaneous Local Product
Issued by NWS North Platte, NE

Home | Current Version | Previous Version | Text Only | Print | Product List | Glossary On
Versions: 1 2 3 4 5 6 7 8 9 10 11 12 13 14 15 16 17 18 19 20 21 22 23 24 25 26 27 28 29 30 31 32 33 34 35 36 37 38 39 40 41 42 43 44 45 46 47 48 49 50
547
AXUS43 KLBF 201310
MISLBF


WESTERN AND NORTH CENTRAL NEBRASKA HOURLY WEATHER ROUNDUP
NATIONAL WEATHER SERVICE NORTH PLATTE NE
700 AM CST SAT JAN 20 2018

NOTE: "FAIR" INDICATES FEW OR NO CLOUDS BELOW 12,000 FEET WITH NO
SIGNIFICANT WEATHER AND/OR OBSTRUCTIONS TO VISIBILITY.

NOTE: STATIONS NOT REPORTING VARIABLES SUCH AS SKY/WEATHER OR
PRESSURE ARE PROVIDED BY RAWS AND APRS NETWORKS AND ARE NOT UNDER
NATIONAL WEATHER SERVICE QUALITY CONTROL.

...OBSERVATIONS IN AND NEAR THE EASTERN PANHANDLE OF NEBRASKA...

CITY           SKY/WX    TMP DP  RH WIND       PRES   REMARKS
PINE RIDGE     MOCLDY    23  22  96 CALM      29.85R
GORDON         FAIR      25  22  90 CALM      29.82R
CHADRON        PTCLDY    25  23  92 W6        29.85S WCI  18
ALLIANCE       MOCLDY    28  27  96 E3        29.79R
SIDNEY         CLOUDY    27  24  89 NW7       29.76S WCI  19
CRESCENT LAKE    N/A     29  27  93 N8          N/A  WCI  21
$$

...OBSERVATIONS IN NORTHERN NEBRASKA AND FAR SOUTHERN SOUTH DAKOTA...

CITY           SKY/WX    TMP DP  RH WIND       PRES   REMARKS
WINNER         FAIR      28  26  92 SW6       29.84R WCI  22
VALENTINE      MOCLDY    26  23  88 N3        29.82F
AINSWORTH      CLOUDY    30  29  99 NW3       29.82S
O`NEILL        CLOUDY    31  30  96 N3        29.82R
THEDFORD       CLOUDY    31  29  93 N3        29.82R
BROKEN BOW     CLOUDY    33  28  81 N3        29.79R
ORD            MOCLDY    33  29  85 N3        29.79R
ALBION         CLOUDY    31  27  85 N5        29.81R WCI  26
VALENTINE NWR    N/A     29  27  93 CALM        N/A
HALSEY           N/A     29  28  95 CALM        N/A
BUTTE            N/A     32  29  87 N3          N/A
CHAMBERS         N/A     31  28  89 CALM        N/A
EWING            N/A     33  30  89 NE3         N/A
$$

...OBSERVATIONS IN SOUTHWEST NEBRASKA AND FAR NORTHEAST COLORADO...

CITY           SKY/WX    TMP DP  RH WIND       PRES   REMARKS
WRAY           FAIR      23  21  93 W3        29.76R
HOLYOKE        FAIR      28  25  86 N6        29.76S WCI  22
IMPERIAL       CLOUDY    28  27  96 N9        29.78R WCI  19
OGALLALA       CLOUDY    28  26  94 W5        29.79R WCI  23
NORTH PLATTE   CLOUDY    30  27  88 NE5       29.79R WCI  25
MCCOOK         PTCLDY    25  23  92 N9        29.77R WCI  15
LEXINGTON      PTCLDY    30  26  86 N7        29.78R WCI  23
STAPLETON        N/A     31  29  90 CALM        N/A
GOTHENBURG       N/A     30  27  90 CALM        N/A
CALLAWAY         N/A     32  29  87 NE5         N/A  WCI  27
$$

...OBSERVATIONS IN CENTRAL LINCOLN COUNTY AREA...

CITY           SKY/WX    TMP DP  RH WIND       PRES   REMARKS
N.P. AIRPORT   CLOUDY    30  27  88 NE5       29.79R WCI  25
N.P. DOWNTOWN    N/A     31  29  91 CALM        N/A
N.P. SOUTHEAST   N/A     31  28  89 CALM        N/A
N.P. HILLCREST   N/A     33  30  90 NE7         N/A  WCI  27
$$

...SOME OBSERVATIONS FROM AROUND THE REGION...

CITY           SKY/WX    TMP DP  RH WIND       PRES   REMARKS
DENVER         PTCLDY    42  16  34 SW9       29.74S
BERTHOUD PASS  FAIR      21  10  63 W21G30    29.93F WCI   6
GRAND JUNCTION CLOUDY    43  25  49 SE12      29.76F
LARAMIE        CLEAR     24  19  81 NE7       29.79R WCI  16
CHEYENNE       PTCLDY    32  18  56 NW6       29.76R WCI  26
CASPER         LGT SNOW  29  28  96 NE10      29.82F FOG     WCI  20
BISMARCK       CLOUDY    34  31  88 W9        29.81R WCI  27
RAPID CITY     CLOUDY    34  31  88 NW16      29.86R WCI  24
PIERRE         CLOUDY    34  32  92 NW9       29.83R WCI  27
SIOUX FALLS    CLOUDY    24  23  96 NW3       29.84R
OMAHA          CLOUDY    25  23  92 N5        29.83R WCI  19
GRAND ISLAND   CLOUDY    25  25 100 NE5       29.79R WCI  19
SCOTTSBLUFF    MOCLDY    26  25  96 W7        29.79R WCI  18
KANSAS CITY    CLOUDY    45  41  86 SW13      29.87S
HILL CITY      CLOUDY    22  19  89 SW3       29.73S
WICHITA        CLOUDY    49  46  90 S14       29.80R
DODGE CITY     CLOUDY    30  15  53 SW7       29.72R WCI  23
OKLAHOMA CITY  CLOUDY    49  46  90 S16       29.85S
DALLAS         CLOUDY    56  50  80 S18       29.96S
AMARILLO       CLOUDY    35  16  45 SW8       29.79R WCI  29
$$




USA.gov is the U.S. government's official web portal to all federal, state and local government web resources and services.